Location: Gajan
(43.0218°N, 1.1244°E)
Time: 01:44:42
(UTC+00:00)

Cosmos 407 Rocket - Pass Details

Date: 22 April 2021
Orbit: 743 x 787 km, 74.0° (Epoch: 15 May)

Event Time Altitude Azimuth Distance (km) Brightness Sun altitude
Rises 19:58:03 0° 189° (S) 3,168 6.5 -12.7°
Reaches altitude 10° 20:00:24 10° 187° (S) 2,252 5.7 -13.1°
Maximum altitude 20:05:26 64° 106° (ESE) 830 3.4 -13.9°
Drops below altitude 10° 20:10:33 10° 26° (NNE) 2,288 6.1 -14.7°
Sets 20:12:57 0° 24° (NNE) 3,224 6.9 -15.0°
